FENGYUN 1C DEB, 31043

Orbit data source: Space-Track

FENGYUN 1C DEB, 31043 is space debris in SSO originally from a launch on Mon, 10 May 1999 UTC launched from the Taiyaun Space Center, China (TSC). Fengyun 1C debris stems from the Chinese weather satellite Fengyun-1C, which was intentionally destroyed by a Chinese anti-satellite missile in 2007. This event dramatically increased the amount of space debris, with thousands of trackable fragments posing hazards to satellites and human spaceflight. The Fengyun 1C debris cloud has become a focal point in discussions about space sustainability and the need for international regulations to prevent the creation of new debris.

Loading next visibility...
Identifier
31043, 1999-025BEM
Orbit
SSO
Country
Flag of CNCN / PRC
Related business
Manufacturer
Unknown
Mission
Spacecraft
Bus & Motor
Unknown
Mass
Unknown
Launch date (UTC)
1999-05-10 (26 years ago)
Launch vehicle
Unknown
Launch site
Taiyaun Space Center, China (TSC)
Object type
Payload
Rocket body
Debris
Shape & HBR
Unknown shape, 0.1 m
Radar Cross Section
Small (<0.1 m²)

Expand to show TLE details & history
Last TLE update: 23 hours ago

TLE from 23 hours ago
0 FENGYUN 1C DEB
1 31043U 99025BEM 25308.51879882  .00000956  00000-0  57893-3 0  9997
2 31043  98.7681 327.4115 0042524 110.6282  44.7428 14.08336357954492
Epoch: 2025-11-04T12:27Z
TLE epoch observation values (Epoch: 2025-11-04T12:27:04.218Z)
Latitude
24.00751°
Longitude
-79.44252°
Altitude
846.142 km
Speed
7.443 km/s
True Right ascension
10h 05m 19s
True Declination
23° 52' 53"
Sunlit
Object was in daylight at epoch
Visualization orbit readout
Latitude
Unknown
Longitude
Unknown
Altitude
Unknown
Speed
Unknown
Apparent Right ascension
Unknown
Apparent Declination
Unknown
Sunlit
N/A
Visualization observer readout
Local Sidereal Time
07:19:42
Azimuth
Unknown
Elevation
Unknown
Doppler factor
Unknown
Orbital elements
Apogee altitude
893.036 km
Perigee altitude
831.458 km
Semi-major axis
7,240.384 km
Eccentricity
0.00425
Inclination
98.7681°
RAAN
327.4115°
Arg. of periapsis
110.6282°
True anomaly
45.08711°
Mean anomaly
44.7428°
Eccentric anomaly
44.91483°
Mean motion
3.5229 °/min
Orbital period
102.19 mins
BSTAR
0.00057893
Loading maneuver chart data...
Computing Atmospheric mass density...

Documentation

Showing up to 5 results
|